This demonstration page uses our WeatherBlox Daily Observations layout. Learn more.

Left ArrowRight Arrow

40.97296, -117.73568

Hourly Observations for January 4, 2022

Temp ( °F °C ) Dew Point ( °F °C ) Humidity (%) Winds ( mph kmh ) Pressure ( in mb ) Visibility ( mi km ) Precip ( " mm )
12:56 am 00:56 Clear 39 3.9 28 -2.2 65 65 WNW 7 11 29.92 1013 10 16 0.00 0.00
1:56 am 01:56 Clear 41 5 28 -2.2 60 60 VRB 5 7 29.96 1014 10 16 0.00 0.00
2:56 am 02:56 Clear 43 6.1 27 -2.8 53 53 Calm 29.99 1016 10 16 0.00 0.00
3:56 am 03:56 Clear 41 5 27 -2.8 57 57 VRB 5 7 30.01 1016 10 16 0.00 0.00
4:56 am 04:56 Clear 41 5 28 -2.2 60 60 VRB 5 7 30.04 1017 10 16 0.00 0.00
5:56 am 05:56 Clear 42 5.6 27 -2.8 55 55 WSW 15 24 30.07 1018 10 16 0.00 0.00
6:56 am 06:56 Mostly Clear 41 5 28 -2.2 60 60 WSW 15 24 30.07 1018 10 16 0.00 0.00
7:56 am 07:56 Mostly Cloudy 41 5 28 -2.2 60 60 WSW 13 20 30.08 1019 10 16 0.00 0.00
8:56 am 08:56 Cloudy 42 5.6 29 -1.7 60 60 WSW 14 22 30.11 1020 10 16 0.00 0.00
9:56 am 09:56 Cloudy 43 6.1 29 -1.7 58 58 WSW 15 24 30.12 1020 10 16 0.00 0.00
10:56 am 10:56 Cloudy 43 6.1 29 -1.7 58 58 WSW 20 31 30.11 1020 10 16 0.00 0.00
11:56 am 11:56 Cloudy 43 6.1 29 -1.7 58 58 S 7 11 30.12 1020 10 16 0.00 0.00
12:56 pm 12:56 Cloudy 45 7.2 28 -2.2 52 52 WSW 7 11 30.12 1020 10 16 0.00 0.00
1:56 pm 13:56 Mostly Sunny 44 6.7 28 -2.2 53 53 SW 13 20 30.10 1019 10 16 0.00 0.00
2:56 pm 14:56 Sunny 43 6.1 28 -2.2 56 56 WSW 20 31 30.11 1020 10 16 0.00 0.00
3:56 pm 15:56 Partly Cloudy 42 5.6 29 -1.7 60 60 WSW 6 9 30.13 1020 10 16 0.00 0.00
4:56 pm 16:56 Cloudy 41 5 29 -1.7 62 62 S 8 13 30.13 1020 10 16 0.00 0.00
5:56 pm 17:56 Cloudy 40 4.4 30 -1.1 68 68 SW 7 11 30.13 1020 10 16 0.00 0.00
6:56 pm 18:56 Cloudy 41 5 30 -1.1 65 65 S 12 19 30.12 1020 10 16 0.00 0.00
7:56 pm 19:56 Cloudy 40 4.4 31 -0.6 70 70 S 13 20 30.12 1020 10 16 0.00 0.00
8:56 pm 20:56 Cloudy 39 3.9 31 -0.6 73 73 S 13 20 30.11 1020 10 16 0.00 0.00
9:56 pm 21:56 Cloudy 41 5 31 -0.6 67 67 S 12 19 30.11 1020 10 16 0.00 0.00
10:56 pm 22:56 Cloudy 43 6.1 32 0 65 65 S 6 9 30.10 1019 10 16 0.00 0.00
11:56 pm 23:56 Cloudy 43 6.1 32 0 65 65 S 6 9 30.10 1019 10 16 0.00 0.00

Powered by AerisWeather